Indianapolis, IN

11:16 AM EDT on September 15, 2019 (GMT -0400)
Indianapolis International

Weather History for KIND - July, 2019

Change the Weather History Date:

Saturday, July 20, 2019

  Actual Average Record
Temperature  
Mean Temperature 84 °F 75 °F  
Max Temperature 93 °F 85 °F 103 °F (1934)
Min Temperature 75 °F 66 °F 49 °F (1947)
Degree Days  
Heating Degree Days 0 0  
Month to date heating degree days 0 0  
Since 1 June heating degree days 9 16  
Since 1 July heating degree days 0 0  
Cooling Degree Days 19 10  
Month to date cooling degree days 308 215  
Year to date cooling degree days 622 525  
Since 1 June cooling degree days 511 441  
Growing Degree Days 34 (Base 50)    
Moisture  
Dew Point 74 °F    
Average Humidity 73    
Maximum Humidity 94    
Minimum Humidity 52    
Precipitation  
Precipitation 0.00 in 0.13 in 4.00 in (1969)
Month to date precipitation 2.33 3.11  
Year to date precipitation 31.48 24.76  
Snow  
Snow 0.00 in 0.00 in 0.00 in ()
Month to date snowfall 0.0 0.0  
Since 1 June snowfall 0.0 0.0  
Since 1 July snowfall 0.0 0.0  
Snow Depth 0.00 in    
Sea Level Pressure  
Sea Level Pressure 29.93 in    
Wind  
Wind Speed 10 mph (SSW)    
Max Wind Speed 23 mph    
Max Gust Speed 31 mph    
Visibility 10 miles    
Events      
T = Trace of Precipitation, MM = Missing Value Source: NWS Daily Summary

Daily Weather History Graph

Daily Weather History Graph

Search for Another Location

Airport or City:

Astronomy

Jul. 20, 2019 Rise Set
Actual Time 6:33 AM EDT 9:09 PM EDT
Civil Twilight 6:02 AM EDT 9:40 PM EDT
Nautical Twilight 5:23 AM EDT 10:19 PM EDT
Astronomical Twilight 4:39 AM EDT 11:02 PM EDT
Moon 11:36 PM EDT (7/20) 9:56 AM EDT (7/20)
Length of Visible Light 15h 37m
Length of Day
14h 35m
Waning Gibbous, 87% of the Moon is Illuminated
Jul 20
Waning Gibbous
Jul 24
Last Quarter
Jul 31
New
Aug 7
First Quarter
Aug 15
Full

Hourly Weather History & Observations

Time (EDT) Temp. Heat Index Dew Point Humidity Pressure Visibility Wind Dir Wind Speed Gust Speed Precip Events Conditions
12:54 AM 79.0 °F - 73.9 °F 84% 29.95 in 10.0 mi South 8.1 mph - N/A   Clear
1:54 AM 78.1 °F - 73.9 °F 87% 29.94 in 10.0 mi SSW 10.4 mph - N/A   Clear
2:54 AM 77.0 °F - 73.9 °F 90% 29.93 in 10.0 mi SW 8.1 mph - N/A   Clear
3:54 AM 77.0 °F - 73.9 °F 90% 29.94 in 10.0 mi WSW 6.9 mph - N/A   Clear
4:54 AM 75.9 °F - 73.9 °F 94% 29.95 in 10.0 mi SW 8.1 mph - N/A   Clear
5:54 AM 75.9 °F - 73.9 °F 94% 29.95 in 10.0 mi SW 6.9 mph - N/A   Clear
6:54 AM 75.9 °F - 73.9 °F 94% 29.99 in 9.0 mi SW 3.5 mph - N/A   Mostly Cloudy
7:54 AM 78.1 °F - 73.9 °F 87% 29.98 in 9.0 mi South 3.5 mph - N/A   Mostly Cloudy
8:54 AM 79.0 °F - 75.0 °F 88% 29.96 in 9.0 mi SSW 6.9 mph - N/A   Mostly Cloudy
9:54 AM 82.0 °F 89.4 °F 75.9 °F 82% 29.95 in 10.0 mi SSW 9.2 mph - N/A   Mostly Cloudy
10:03 AM 82.0 °F 89.4 °F 75.9 °F 82% 29.97 in 10.0 mi SSW 9.2 mph - N/A   Mostly Cloudy
10:54 AM 84.9 °F 95.3 °F 77.0 °F 77% 29.94 in 10.0 mi SSW 8.1 mph - N/A   Mostly Cloudy
11:54 AM 88.0 °F 100.2 °F 77.0 °F 70% 29.93 in 10.0 mi South 10.4 mph - N/A   Mostly Cloudy
12:54 PM 89.1 °F 99.1 °F 75.0 °F 63% 29.94 in 10.0 mi SSW 13.8 mph - N/A   Scattered Clouds
1:54 PM 87.1 °F 96.3 °F 75.0 °F 67% 29.92 in 10.0 mi SSW 16.1 mph 26.5 mph N/A   Scattered Clouds
2:54 PM 91.9 °F 101.3 °F 73.9 °F 55% 29.91 in 10.0 mi SW 17.3 mph 29.9 mph N/A   Scattered Clouds
3:54 PM 91.9 °F 101.3 °F 73.9 °F 55% 29.91 in 10.0 mi SSW 17.3 mph - N/A   Scattered Clouds
4:54 PM 93.0 °F 103.2 °F 73.9 °F 54% 29.91 in 10.0 mi SW 15.0 mph 24.2 mph N/A   Mostly Cloudy
5:54 PM 90.0 °F 97.9 °F 73.0 °F 57% 29.91 in 10.0 mi SW 15.0 mph - N/A   Mostly Cloudy
6:54 PM 90.0 °F 96.9 °F 72.0 °F 55% 29.91 in 10.0 mi SW 13.8 mph - N/A   Scattered Clouds
7:54 PM 88.0 °F 95.6 °F 73.0 °F 61% 29.90 in 10.0 mi SSW 11.5 mph - N/A   Scattered Clouds
8:54 PM 84.9 °F 91.4 °F 73.0 °F 67% 29.89 in 10.0 mi SW 8.1 mph - N/A   Partly Cloudy
9:54 PM 82.9 °F 89.4 °F 73.9 °F 74% 29.90 in 10.0 mi SSW 6.9 mph - N/A   Partly Cloudy
10:54 PM 82.0 °F 87.9 °F 73.9 °F 76% 29.91 in 10.0 mi SSW 3.5 mph - N/A   Clear
11:54 PM 80.1 °F 85.1 °F 75.0 °F 85% 29.93 in 10.0 mi South 10.4 mph - N/A   Partly Cloudy